Time,TemperatureF,DewpointF,PressureIn,WindDirection,WindDirectionDegrees,WindSpeedMPH,WindSpeedGustMPH,Humidity,HourlyPrecipIn,Conditions,Clouds,dailyrainin,SoftwareType,DateUTC
2013-02-01 00:12:00,25.0,-99.9,-100.00,North,-999,-999.0,-999.0,-999,0.01,,,0.08,,2013-02-01 07:12:00,
2013-02-01 00:22:00,25.0,-99.9,-100.00,North,-999,-999.0,-999.0,-999,0.01,,,0.08,,2013-02-01 07:22:00,
2013-02-01 00:32:00,25.0,-99.9,-100.00,North,-999,-999.0,-999.0,-999,0.01,,,0.08,,2013-02-01 07:32:00,
2013-02-01 00:42:00,25.0,-99.9,-100.00,North,-999,-999.0,-999.0,-999,0.01,,,0.08,,2013-02-01 07:42:00,
2013-02-01 01:11:00,25.0,-99.9,-100.00,North,-999,-999.0,-999.0,-999,0.00,,,0.08,,2013-02-01 08:11:00,
2013-02-01 01:22:00,25.0,-99.9,-100.00,North,-999,-999.0,-999.0,-999,0.00,,,0.08,,2013-02-01 08:22:00,
2013-02-01 01:32:00,25.0,-99.9,-100.00,North,-999,-999.0,-999.0,-999,0.00,,,0.08,,2013-02-01 08:32:00,
2013-02-01 01:42:00,25.0,-99.9,-100.00,North,-999,-999.0,-999.0,-999,0.00,,,0.08,,2013-02-01 08:42:00,
2013-02-01 02:11:00,26.0,-99.9,-100.00,North,-999,-999.0,-999.0,-999,-99.99,,,0.07,,2013-02-01 09:11:00,
2013-02-01 02:22:00,26.0,-99.9,-100.00,North,-999,-999.0,-999.0,-999,-99.99,,,0.07,,2013-02-01 09:22:00,
2013-02-01 02:32:00,26.0,-99.9,-100.00,North,-999,-999.0,-999.0,-999,-99.99,,,0.07,,2013-02-01 09:32:00,
2013-02-01 02:42:00,26.0,-99.9,-100.00,North,-999,-999.0,-999.0,-999,-99.99,,,0.07,,2013-02-01 09:42:00,
2013-02-01 03:11:00,26.0,-99.9,-100.00,North,-999,-999.0,-999.0,-999,0.00,,,0.07,,2013-02-01 10:11:00,
2013-02-01 03:22:00,26.0,-99.9,-100.00,North,-999,-999.0,-999.0,-999,0.00,,,0.07,,2013-02-01 10:22:00,
2013-02-01 03:32:00,26.0,-99.9,-100.00,North,-999,-999.0,-999.0,-999,0.00,,,0.07,,2013-02-01 10:32:00,
2013-02-01 03:43:00,26.0,-99.9,-100.00,North,-999,-999.0,-999.0,-999,0.00,,,0.07,,2013-02-01 10:43:00,
2013-02-01 04:12:00,26.0,-99.9,-100.00,North,-999,-999.0,-999.0,-999,0.03,,,0.09,,2013-02-01 11:12:00,
2013-02-01 04:22:00,26.0,-99.9,-100.00,North,-999,-999.0,-999.0,-999,0.03,,,0.09,,2013-02-01 11:22:00,
2013-02-01 04:32:00,26.0,-99.9,-100.00,North,-999,-999.0,-999.0,-999,0.03,,,0.09,,2013-02-01 11:32:00,
2013-02-01 04:42:00,26.0,-99.9,-100.00,North,-999,-999.0,-999.0,-999,0.03,,,0.09,,2013-02-01 11:42:00,
2013-02-01 05:12:00,26.0,-99.9,-100.00,North,-999,-999.0,-999.0,-999,0.00,,,-99.99,,2013-02-01 12:12:00,
2013-02-01 05:23:00,26.0,-99.9,-100.00,North,-999,-999.0,-999.0,-999,0.00,,,-99.99,,2013-02-01 12:23:00,
2013-02-01 05:32:00,26.0,-99.9,-100.00,North,-999,-999.0,-999.0,-999,0.00,,,-99.99,,2013-02-01 12:32:00,
2013-02-01 05:42:00,26.0,-99.9,-100.00,North,-999,-999.0,-999.0,-999,0.00,,,-99.99,,2013-02-01 12:42:00,
2013-02-01 06:12:00,28.0,-99.9,-100.00,North,-999,-999.0,-999.0,-999,0.07,,,0.15,,2013-02-01 13:12:00,
2013-02-01 06:22:00,28.0,-99.9,-100.00,North,-999,-999.0,-999.0,-999,0.07,,,0.15,,2013-02-01 13:22:00,
2013-02-01 06:33:00,28.0,-99.9,-100.00,North,-999,-999.0,-999.0,-999,0.07,,,0.15,,2013-02-01 13:33:00,
2013-02-01 06:43:00,28.0,-99.9,-100.00,North,-999,-999.0,-999.0,-999,0.07,,,0.15,,2013-02-01 13:43:00,
2013-02-01 07:12:00,27.0,-99.9,-100.00,North,-999,-999.0,-999.0,-999,0.00,,,0.16,,2013-02-01 14:12:00,
2013-02-01 07:22:00,27.0,-99.9,-100.00,North,-999,-999.0,-999.0,-999,0.00,,,0.16,,2013-02-01 14:22:00,
2013-02-01 07:33:00,27.0,-99.9,-100.00,North,-999,-999.0,-999.0,-999,0.00,,,0.16,,2013-02-01 14:33:00,
2013-02-01 07:43:00,27.0,-99.9,-100.00,North,-999,-999.0,-999.0,-999,0.00,,,0.16,,2013-02-01 14:43:00,
2013-02-01 08:13:00,27.0,-99.9,-100.00,North,-999,-999.0,-999.0,-999,0.02,,,0.18,,2013-02-01 15:13:00,
2013-02-01 08:23:00,27.0,-99.9,-100.00,North,-999,-999.0,-999.0,-999,0.02,,,0.18,,2013-02-01 15:23:00,
2013-02-01 08:33:00,27.0,-99.9,-100.00,North,-999,-999.0,-999.0,-999,0.02,,,0.18,,2013-02-01 15:33:00,
2013-02-01 08:42:00,27.0,-99.9,-100.00,North,-999,-999.0,-999.0,-999,0.02,,,0.18,,2013-02-01 15:42:00,
2013-02-01 09:12:00,26.0,-99.9,-100.00,North,-999,-999.0,-999.0,-999,0.02,,,0.20,,2013-02-01 16:12:00,
2013-02-01 09:22:00,26.0,-99.9,-100.00,North,-999,-999.0,-999.0,-999,0.02,,,0.20,,2013-02-01 16:22:00,
2013-02-01 09:33:00,26.0,-99.9,-100.00,North,-999,-999.0,-999.0,-999,0.02,,,0.20,,2013-02-01 16:33:00,
2013-02-01 09:43:00,26.0,-99.9,-100.00,North,-999,-999.0,-999.0,-999,0.02,,,0.20,,2013-02-01 16:43:00,
2013-02-01 10:13:00,26.0,-99.9,-100.00,North,-999,-999.0,-999.0,-999,0.05,,,-99.99,,2013-02-01 17:13:00,
2013-02-01 10:22:00,26.0,-99.9,-100.00,North,-999,-999.0,-999.0,-999,0.05,,,-99.99,,2013-02-01 17:22:00,
2013-02-01 10:32:00,26.0,-99.9,-100.00,North,-999,-999.0,-999.0,-999,0.05,,,-99.99,,2013-02-01 17:32:00,
2013-02-01 10:42:00,26.0,-99.9,-100.00,North,-999,-999.0,-999.0,-999,0.05,,,-99.99,,2013-02-01 17:42:00,
2013-02-01 11:13:00,26.0,-99.9,-100.00,North,-999,-999.0,-999.0,-999,0.02,,,0.27,,2013-02-01 18:13:00,
2013-02-01 11:23:00,26.0,-99.9,-100.00,North,-999,-999.0,-999.0,-999,0.02,,,0.27,,2013-02-01 18:23:00,
2013-02-01 11:33:00,26.0,-99.9,-100.00,North,-999,-999.0,-999.0,-999,0.02,,,0.27,,2013-02-01 18:33:00,
2013-02-01 11:42:00,26.0,-99.9,-100.00,North,-999,-999.0,-999.0,-999,0.02,,,0.27,,2013-02-01 18:42:00,
2013-02-01 12:12:00,26.0,-99.9,-100.00,North,-999,-999.0,-999.0,-999,0.01,,,0.28,,2013-02-01 19:12:00,
2013-02-01 12:22:00,26.0,-99.9,-100.00,North,-999,-999.0,-999.0,-999,0.01,,,0.28,,2013-02-01 19:22:00,
2013-02-01 12:33:00,26.0,-99.9,-100.00,North,-999,-999.0,-999.0,-999,0.01,,,0.28,,2013-02-01 19:33:00,
2013-02-01 12:42:00,26.0,-99.9,-100.00,North,-999,-999.0,-999.0,-999,0.01,,,0.28,,2013-02-01 19:42:00,
2013-02-01 13:22:00,27.0,-99.9,-100.00,North,-999,-999.0,-999.0,-999,0.00,,,0.28,,2013-02-01 20:22:00,
2013-02-01 13:32:00,27.0,-99.9,-100.00,North,-999,-999.0,-999.0,-999,0.00,,,0.28,,2013-02-01 20:32:00,
2013-02-01 14:12:00,27.0,-99.9,-100.00,North,-999,-999.0,-999.0,-999,0.00,,,0.28,,2013-02-01 21:12:00,
2013-02-01 14:22:00,27.0,-99.9,-100.00,North,-999,-999.0,-999.0,-999,0.00,,,0.28,,2013-02-01 21:22:00,
2013-02-01 14:32:00,27.0,-99.9,-100.00,North,-999,-999.0,-999.0,-999,0.00,,,0.28,,2013-02-01 21:32:00,
2013-02-01 14:42:00,27.0,-99.9,-100.00,North,-999,-999.0,-999.0,-999,0.00,,,0.28,,2013-02-01 21:42:00,
2013-02-01 15:11:00,26.0,-99.9,-100.00,North,-999,-999.0,-999.0,-999,0.00,,,0.27,,2013-02-01 22:11:00,
2013-02-01 15:22:00,26.0,-99.9,-100.00,North,-999,-999.0,-999.0,-999,0.00,,,0.27,,2013-02-01 22:22:00,
2013-02-01 15:32:00,26.0,-99.9,-100.00,North,-999,-999.0,-999.0,-999,0.00,,,0.27,,2013-02-01 22:32:00,
2013-02-01 16:11:00,27.0,-99.9,-100.00,North,-999,-999.0,-999.0,-999,0.00,,,0.28,,2013-02-01 23:11:00,
2013-02-01 16:22:00,27.0,-99.9,-100.00,North,-999,-999.0,-999.0,-999,0.00,,,0.28,,2013-02-01 23:22:00,
2013-02-01 16:32:00,27.0,-99.9,-100.00,North,-999,-999.0,-999.0,-999,0.00,,,0.28,,2013-02-01 23:32:00,
2013-02-01 16:42:00,27.0,-99.9,-100.00,North,-999,-999.0,-999.0,-999,0.00,,,0.28,,2013-02-01 23:42:00,
2013-02-01 17:22:00,26.0,-99.9,-100.00,North,-999,-999.0,-999.0,-999,0.01,,,0.26,,2013-02-02 00:22:00,
2013-02-01 17:32:00,26.0,-99.9,-100.00,North,-999,-999.0,-999.0,-999,0.01,,,0.26,,2013-02-02 00:32:00,
2013-02-01 17:42:00,26.0,-99.9,-100.00,North,-999,-999.0,-999.0,-999,0.01,,,0.26,,2013-02-02 00:42:00,
2013-02-01 18:11:00,25.0,-99.9,-100.00,North,-999,-999.0,-999.0,-999,0.00,,,0.26,,2013-02-02 01:11:00,
2013-02-01 18:22:00,25.0,-99.9,-100.00,North,-999,-999.0,-999.0,-999,0.00,,,0.26,,2013-02-02 01:22:00,
2013-02-01 18:32:00,25.0,-99.9,-100.00,North,-999,-999.0,-999.0,-999,0.00,,,0.26,,2013-02-02 01:32:00,
2013-02-01 18:42:00,25.0,-99.9,-100.00,North,-999,-999.0,-999.0,-999,0.00,,,0.26,,2013-02-02 01:42:00,
2013-02-01 19:11:00,25.0,-99.9,-100.00,North,-999,-999.0,-999.0,-999,0.00,,,0.25,,2013-02-02 02:11:00,
2013-02-01 19:22:00,25.0,-99.9,-100.00,North,-999,-999.0,-999.0,-999,0.00,,,0.25,,2013-02-02 02:22:00,
2013-02-01 19:32:00,25.0,-99.9,-100.00,North,-999,-999.0,-999.0,-999,0.00,,,0.25,,2013-02-02 02:32:00,
2013-02-01 19:42:00,25.0,-99.9,-100.00,North,-999,-999.0,-999.0,-999,0.00,,,0.25,,2013-02-02 02:42:00,
2013-02-01 20:12:00,25.0,-99.9,-100.00,North,-999,-999.0,-999.0,-999,0.00,,,0.24,,2013-02-02 03:12:00,
2013-02-01 20:22:00,25.0,-99.9,-100.00,North,-999,-999.0,-999.0,-999,0.00,,,0.24,,2013-02-02 03:22:00,
2013-02-01 20:32:00,25.0,-99.9,-100.00,North,-999,-999.0,-999.0,-999,0.00,,,0.24,,2013-02-02 03:32:00,
2013-02-01 20:42:00,25.0,-99.9,-100.00,North,-999,-999.0,-999.0,-999,0.00,,,0.24,,2013-02-02 03:42:00,
2013-02-01 21:11:00,25.0,-99.9,-100.00,North,-999,-999.0,-999.0,-999,0.00,,,0.23,,2013-02-02 04:11:00,
2013-02-01 21:22:00,25.0,-99.9,-100.00,North,-999,-999.0,-999.0,-999,0.00,,,0.23,,2013-02-02 04:22:00,
2013-02-01 21:33:00,25.0,-99.9,-100.00,North,-999,-999.0,-999.0,-999,0.00,,,0.23,,2013-02-02 04:33:00,
2013-02-01 21:42:00,25.0,-99.9,-100.00,North,-999,-999.0,-999.0,-999,0.00,,,0.23,,2013-02-02 04:42:00,
2013-02-01 22:12:00,25.0,-99.9,-100.00,North,-999,-999.0,-999.0,-999,0.00,,,-99.99,,2013-02-02 05:12:00,
2013-02-01 22:22:00,25.0,-99.9,-100.00,North,-999,-999.0,-999.0,-999,0.00,,,-99.99,,2013-02-02 05:22:00,
2013-02-01 22:33:00,25.0,-99.9,-100.00,North,-999,-999.0,-999.0,-999,0.00,,,-99.99,,2013-02-02 05:33:00,
2013-02-01 22:42:00,25.0,-99.9,-100.00,North,-999,-999.0,-999.0,-999,0.00,,,-99.99,,2013-02-02 05:42:00,
2013-02-01 23:12:00,25.0,-99.9,-100.00,North,-999,-999.0,-999.0,-999,0.00,,,0.23,,2013-02-02 06:12:00,
2013-02-01 23:22:00,25.0,-99.9,-100.00,North,-999,-999.0,-999.0,-999,0.00,,,0.23,,2013-02-02 06:22:00,
2013-02-01 23:32:00,25.0,-99.9,-100.00,North,-999,-999.0,-999.0,-999,0.00,,,0.23,,2013-02-02 06:32:00,
2013-02-01 23:42:00,25.0,-99.9,-100.00,North,-999,-999.0,-999.0,-999,0.00,,,0.23,,2013-02-02 06:42:00,